Powrót do katalogu

THORAD AGENA D DEB

AktywnyLEO
NORAD 4438·DEBRIS·🇺🇸 United States

Wystrzelony Sep 30, 1969 z Vandenberg Space Force Base

Loading…

Następne Przeloty (najbliższe 24 godziny)

TLE

ŚwieżeSource: Space-Track

Epoka: Sep 14, 2026, 08:05 UTC

1 04438U 69082EK  26257.33688057  .00001369  00000-0  25414-3 0  9994
2 04438  70.0965  24.8745 0044763  19.8112 340.4756 14.66821370987757

Śledź THORAD AGENA D DEB w czasie rzeczywistym z AllMySat

Download on the App Store